N978PJ GUFH-FCBB

Flight info

Callsign N978PJ
Flight time 3h 59m
Altitude 45000
Route GUFH/27 ONADA UR979 AD UA400 STM UA616 LV G856 IPAMU POGL1U RNV23 BILEV FCBB/23
Aircraft C750/M-SDE3FGIJ1KRWXY/LB1

Departure

Time 2026-05-08 07:48
Airport Faranah Airport (GUFH)

Arrival

Time 2026-05-08 11:47
Airport Maya-Maya International Airport (FCBB)
Time Latitude Longitude Altitude Speed Heading
2026-05-08 07:11 10.03859 -10.76095 1489 ft 0 kts 271°
2026-05-08 07:39 10.03859 -10.76093 1483 ft 4 kts 271°
2026-05-08 07:39 10.03858 -10.76065 1489 ft 4 kts 273°
2026-05-08 07:39 10.03862 -10.76038 1489 ft 4 kts 259°
2026-05-08 07:39 10.03872 -10.76013 1477 ft 4 kts 214°
2026-05-08 07:40 10.03877 -10.76009 1481 ft 0 kts 204°
2026-05-08 07:44 10.03858 -10.76018 1488 ft 8 kts 204°
2026-05-08 07:44 10.03798 -10.76031 1487 ft 9 kts 174°
2026-05-08 07:45 10.03736 -10.76016 1485 ft 9 kts 138°
2026-05-08 07:45 10.03719 -10.75951 1484 ft 9 kts 96°
2026-05-08 07:45 10.03731 -10.75903 1480 ft 6 kts 21°
2026-05-08 07:45 10.03750 -10.75918 1480 ft 3 kts 281°
2026-05-08 07:46 10.03732 -10.75943 1472 ft 5 kts 237°
2026-05-08 07:46 10.03730 -10.75953 1473 ft 0 kts 259°
2026-05-08 07:47 10.03720 -10.76012 1477 ft 40 kts 261°
2026-05-08 07:47 10.03639 -10.76651 1479 ft 133 kts 263°
2026-05-08 07:47 10.03507 -10.77724 1650 ft 164 kts 263°
2026-05-08 07:48 10.03381 -10.78948 2130 ft 180 kts 265°
2026-05-08 07:48 10.03281 -10.80253 2770 ft 192 kts 265°
2026-05-08 07:48 10.03186 -10.81677 3318 ft 212 kts 266°
2026-05-08 07:48 10.02978 -10.83233 3874 ft 233 kts 262°
2026-05-08 07:49 10.02695 -10.84893 4608 ft 242 kts 262°
2026-05-08 07:49 10.02379 -10.86602 5326 ft 251 kts 260°
2026-05-08 07:49 10.01491 -10.88165 5971 ft 266 kts 224°
2026-05-08 07:49 9.99806 -10.88930 6720 ft 272 kts 187°
2026-05-08 07:50 9.97981 -10.88556 7553 ft 271 kts 149°
2026-05-08 07:50 9.96727 -10.87209 8470 ft 262 kts 116°
2026-05-08 07:50 9.96046 -10.85521 9490 ft 258 kts 107°
2026-05-08 07:50 9.95458 -10.83792 10314 ft 261 kts 107°
2026-05-08 07:51 9.94879 -10.82048 11071 ft 261 kts 107°
2026-05-08 07:51 9.94313 -10.80292 11728 ft 263 kts 107°
2026-05-08 07:51 9.93762 -10.78526 12454 ft 262 kts 107°
2026-05-08 07:51 9.93225 -10.76755 13150 ft 263 kts 107°
2026-05-08 07:52 9.92702 -10.74974 13838 ft 264 kts 107°
2026-05-08 07:52 9.92189 -10.73180 14417 ft 267 kts 106°
2026-05-08 07:52 9.91674 -10.71361 14951 ft 271 kts 106°
2026-05-08 07:52 9.91152 -10.69510 15511 ft 274 kts 106°
2026-05-08 07:53 9.90627 -10.67639 16084 ft 278 kts 106°
2026-05-08 07:53 9.90096 -10.65742 16661 ft 282 kts 106°
2026-05-08 07:53 9.89561 -10.63817 17244 ft 286 kts 106°
2026-05-08 07:53 9.89095 -10.61840 17817 ft 290 kts 103°
2026-05-08 07:54 9.88706 -10.59816 18385 ft 295 kts 102°
2026-05-08 07:54 9.88328 -10.57760 18914 ft 298 kts 101°
2026-05-08 07:54 9.87943 -10.55676 19431 ft 303 kts 101°
2026-05-08 07:54 9.87549 -10.53567 19982 ft 306 kts 101°
2026-05-08 07:55 9.87144 -10.51437 20534 ft 309 kts 101°
2026-05-08 07:55 9.86672 -10.49299 21055 ft 314 kts 107°
2026-05-08 07:55 9.85821 -10.47251 21617 ft 316 kts 116°
2026-05-08 07:55 9.84714 -10.45309 22181 ft 320 kts 121°
2026-05-08 07:56 9.83503 -10.43395 22727 ft 325 kts 122°
2026-05-08 07:56 9.82299 -10.41443 23258 ft 329 kts 120°
2026-05-08 07:56 9.81127 -10.39434 23745 ft 333 kts 120°
2026-05-08 07:56 9.79922 -10.37422 24257 ft 334 kts 121°
2026-05-08 07:57 9.78686 -10.35419 24781 ft 336 kts 121°
2026-05-08 07:57 9.77451 -10.33402 25286 ft 338 kts 121°
2026-05-08 07:57 9.76218 -10.31361 25797 ft 340 kts 121°
2026-05-08 07:57 9.74979 -10.29311 26293 ft 343 kts 122°
2026-05-08 07:58 9.73723 -10.27248 26785 ft 345 kts 122°
2026-05-08 07:58 9.72456 -10.25169 27286 ft 348 kts 122°
2026-05-08 07:58 9.71182 -10.23072 27767 ft 351 kts 122°
2026-05-08 07:58 9.69898 -10.20958 28257 ft 354 kts 122°
2026-05-08 07:59 9.68602 -10.18827 28746 ft 357 kts 122°
2026-05-08 07:59 9.67295 -10.16678 29233 ft 359 kts 123°
2026-05-08 07:59 9.65978 -10.14513 29704 ft 362 kts 123°
2026-05-08 07:59 9.64652 -10.12333 30149 ft 365 kts 123°
2026-05-08 08:00 9.63287 -10.10159 30538 ft 367 kts 125°
2026-05-08 08:00 9.61779 -10.08065 30937 ft 369 kts 129°
2026-05-08 08:00 9.60160 -10.06043 31437 ft 370 kts 131°
2026-05-08 08:00 9.58604 -10.03948 31855 ft 375 kts 123°
2026-05-08 08:01 9.57320 -10.01633 32344 ft 378 kts 119°
2026-05-08 08:01 9.56060 -9.99288 32804 ft 381 kts 121°
2026-05-08 08:01 9.54598 -9.97042 33239 ft 383 kts 128°
2026-05-08 08:01 9.52940 -9.94921 33714 ft 385 kts 130°
2026-05-08 08:02 9.51302 -9.92806 34123 ft 389 kts 128°
2026-05-08 08:02 9.49732 -9.90556 34475 ft 393 kts 126°
2026-05-08 08:02 9.48146 -9.88243 34848 ft 397 kts 126°
2026-05-08 08:02 9.46509 -9.85982 35222 ft 400 kts 128°
2026-05-08 08:03 9.44839 -9.83715 35585 ft 403 kts 127°
2026-05-08 08:03 9.43185 -9.81409 35945 ft 407 kts 127°
2026-05-08 08:03 9.41552 -9.79104 36296 ft 410 kts 127°
2026-05-08 08:03 9.39848 -9.76727 36567 ft 414 kts 127°
2026-05-08 08:04 9.38138 -9.74366 36849 ft 416 kts 127°
2026-05-08 08:04 9.36426 -9.71989 37129 ft 419 kts 127°
2026-05-08 08:04 9.35291 -9.70404 37318 ft 421 kts 126°
2026-05-08 08:04 9.33564 -9.67994 37613 ft 424 kts 126°
2026-05-08 08:05 9.31826 -9.65580 37884 ft 427 kts 126°
2026-05-08 08:05 9.30072 -9.63146 38179 ft 429 kts 126°
2026-05-08 08:05 9.28310 -9.60695 38479 ft 432 kts 126°
2026-05-08 08:05 9.26544 -9.58239 38827 ft 431 kts 126°
2026-05-08 08:06 9.24783 -9.55791 39239 ft 429 kts 126°
2026-05-08 08:06 9.23029 -9.53356 39707 ft 425 kts 127°
2026-05-08 08:06 9.21300 -9.50954 40159 ft 422 kts 127°
2026-05-08 08:06 9.19573 -9.48555 40580 ft 420 kts 127°
2026-05-08 08:07 9.17860 -9.46176 40976 ft 418 kts 127°
2026-05-08 08:07 9.16148 -9.43800 41355 ft 416 kts 127°
2026-05-08 08:07 9.14446 -9.41438 41713 ft 415 kts 127°
2026-05-08 08:07 9.12747 -9.39079 42057 ft 414 kts 127°
2026-05-08 08:08 9.11053 -9.36729 42395 ft 413 kts 127°
2026-05-08 08:08 9.09363 -9.34385 42719 ft 412 kts 127°
2026-05-08 08:08 9.07678 -9.32045 43037 ft 411 kts 127°
2026-05-08 08:08 9.06012 -9.29702 43343 ft 410 kts 126°
2026-05-08 08:09 9.04377 -9.27347 43634 ft 409 kts 126°
2026-05-08 08:09 9.02742 -9.25000 43924 ft 407 kts 127°
2026-05-08 08:09 9.01112 -9.22659 44227 ft 406 kts 126°
2026-05-08 08:09 8.99519 -9.20300 44502 ft 405 kts 125°
2026-05-08 08:10 8.97938 -9.17949 44735 ft 404 kts 126°
2026-05-08 08:10 8.96341 -9.15611 44933 ft 403 kts 126°
2026-05-08 08:10 8.94736 -9.13273 44974 ft 407 kts 126°
2026-05-08 08:11 8.91489 -9.08500 44981 ft 417 kts 126°
2026-05-08 08:11 8.88163 -9.03627 44988 ft 425 kts 126°
2026-05-08 08:12 8.84769 -8.98650 44987 ft 434 kts 125°
2026-05-08 08:12 8.81306 -8.93576 44987 ft 442 kts 125°
2026-05-08 08:13 8.77778 -8.88409 44970 ft 451 kts 125°
2026-05-08 08:13 8.74190 -8.83154 44985 ft 458 kts 125°
2026-05-08 08:14 8.70542 -8.77815 44992 ft 465 kts 125°
2026-05-08 08:14 8.66839 -8.72397 44989 ft 471 kts 125°
2026-05-08 08:15 8.63089 -8.66914 44990 ft 476 kts 125°
2026-05-08 08:15 8.59306 -8.61383 44970 ft 480 kts 125°
2026-05-08 08:16 8.55493 -8.55812 44976 ft 483 kts 125°
2026-05-08 08:16 8.51665 -8.50221 44982 ft 485 kts 125°
2026-05-08 08:17 8.47821 -8.44608 44983 ft 486 kts 125°
2026-05-08 08:17 8.43965 -8.38980 44981 ft 488 kts 125°
2026-05-08 08:18 8.40098 -8.33339 44978 ft 489 kts 125°
2026-05-08 08:18 8.36251 -8.27728 44976 ft 489 kts 125°
2026-05-08 08:19 8.32381 -8.22071 44976 ft 490 kts 124°
2026-05-08 08:19 8.28506 -8.16409 44970 ft 490 kts 124°
2026-05-08 08:20 8.24630 -8.10749 44972 ft 490 kts 124°
2026-05-08 08:20 8.20754 -8.05088 44966 ft 490 kts 124°
2026-05-08 08:21 8.16849 -7.99391 44970 ft 490 kts 124°
2026-05-08 08:21 8.13001 -7.93777 44970 ft 490 kts 124°
2026-05-08 08:22 8.09125 -7.88126 44969 ft 489 kts 124°
2026-05-08 08:22 8.05252 -7.82481 44967 ft 489 kts 124°
2026-05-08 08:23 8.01380 -7.76838 44966 ft 489 kts 124°
2026-05-08 08:23 7.97510 -7.71202 44969 ft 488 kts 124°
2026-05-08 08:24 7.93643 -7.65572 44966 ft 488 kts 124°
2026-05-08 08:24 7.89778 -7.59948 44969 ft 488 kts 124°
2026-05-08 08:25 7.85917 -7.54330 44971 ft 487 kts 124°
2026-05-08 08:25 7.82057 -7.48717 44963 ft 487 kts 124°
2026-05-08 08:26 7.78200 -7.43109 44967 ft 486 kts 124°
2026-05-08 08:26 7.74343 -7.37506 44965 ft 486 kts 124°
2026-05-08 08:27 7.70492 -7.31911 44961 ft 486 kts 124°
2026-05-08 08:27 7.66642 -7.26320 44960 ft 485 kts 124°
2026-05-08 08:28 7.62796 -7.20738 44960 ft 485 kts 124°
2026-05-08 08:28 7.58951 -7.15159 44955 ft 484 kts 124°
2026-05-08 08:29 7.55109 -7.09586 44951 ft 484 kts 124°
2026-05-08 08:29 7.51272 -7.04022 44952 ft 483 kts 124°
2026-05-08 08:30 7.47439 -6.98466 44960 ft 483 kts 124°
2026-05-08 08:30 7.41692 -6.90142 44955 ft 482 kts 124°
2026-05-08 08:31 7.37862 -6.84594 44950 ft 482 kts 124°
2026-05-08 08:31 7.34034 -6.79053 44952 ft 482 kts 124°
2026-05-08 08:32 7.30208 -6.73516 44956 ft 481 kts 124°
2026-05-08 08:32 7.26382 -6.67981 44963 ft 481 kts 124°
2026-05-08 08:33 7.22557 -6.62450 44953 ft 481 kts 124°
2026-05-08 08:33 7.18730 -6.56918 44949 ft 481 kts 124°
2026-05-08 08:34 7.14906 -6.51392 44957 ft 481 kts 124°
2026-05-08 08:34 7.11081 -6.45866 44957 ft 481 kts 124°
2026-05-08 08:35 7.07257 -6.40343 44956 ft 481 kts 124°
2026-05-08 08:35 7.03429 -6.34817 44953 ft 481 kts 124°
2026-05-08 08:36 6.99602 -6.29294 44966 ft 481 kts 124°
2026-05-08 08:36 6.95774 -6.23771 44964 ft 481 kts 124°
2026-05-08 08:37 6.91942 -6.18245 44958 ft 482 kts 124°
2026-05-08 08:37 6.88109 -6.12718 44967 ft 482 kts 124°
2026-05-08 08:38 6.84273 -6.07190 44952 ft 482 kts 124°
2026-05-08 08:38 6.80432 -6.01655 44949 ft 482 kts 124°
2026-05-08 08:39 6.76601 -5.96118 44955 ft 482 kts 124°
2026-05-08 08:39 6.72660 -5.90665 44953 ft 482 kts 125°
2026-05-08 08:40 6.68750 -5.85188 44952 ft 482 kts 125°
2026-05-08 08:40 6.64794 -5.79742 44952 ft 482 kts 125°
2026-05-08 08:41 6.60860 -5.74280 44951 ft 482 kts 125°
2026-05-08 08:41 6.56915 -5.68828 44957 ft 482 kts 125°
2026-05-08 08:42 6.52975 -5.63375 44949 ft 482 kts 125°
2026-05-08 08:42 6.49031 -5.57920 44948 ft 482 kts 125°
2026-05-08 08:43 6.45087 -5.52469 44951 ft 482 kts 125°
2026-05-08 08:43 6.41145 -5.47019 44961 ft 482 kts 125°
2026-05-08 08:44 6.37202 -5.41573 44958 ft 481 kts 125°
2026-05-08 08:44 6.33260 -5.36126 44945 ft 482 kts 125°
2026-05-08 08:45 6.29320 -5.30686 44943 ft 481 kts 125°
2026-05-08 08:45 6.25379 -5.25246 44940 ft 481 kts 125°
2026-05-08 08:46 6.21443 -5.19813 44954 ft 481 kts 125°
2026-05-08 08:46 6.18173 -5.15301 44950 ft 481 kts 125°
2026-05-08 08:47 6.14237 -5.09872 44940 ft 481 kts 125°
2026-05-08 08:47 6.10300 -5.04445 44940 ft 480 kts 125°
2026-05-08 08:48 6.06366 -4.99022 44938 ft 480 kts 125°
2026-05-08 08:48 6.02435 -4.93606 44947 ft 480 kts 125°
2026-05-08 08:49 5.98502 -4.88188 44942 ft 480 kts 125°
2026-05-08 08:49 5.94571 -4.82774 44938 ft 480 kts 125°
2026-05-08 08:50 5.90640 -4.77361 44940 ft 479 kts 125°
2026-05-08 08:50 5.86712 -4.71955 44943 ft 479 kts 125°
2026-05-08 08:51 5.82785 -4.66552 44940 ft 479 kts 125°
2026-05-08 08:51 5.78858 -4.61150 44935 ft 479 kts 125°
2026-05-08 08:52 5.74933 -4.55751 44939 ft 479 kts 125°
2026-05-08 08:52 5.71006 -4.50352 44936 ft 479 kts 125°
2026-05-08 08:53 5.67078 -4.44953 44937 ft 479 kts 125°
2026-05-08 08:53 5.63148 -4.39552 44930 ft 479 kts 125°
2026-05-08 08:54 5.59215 -4.34149 44919 ft 479 kts 125°
2026-05-08 08:54 5.55256 -4.28711 44920 ft 479 kts 125°
2026-05-08 08:55 5.51348 -4.23345 44923 ft 479 kts 125°
2026-05-08 08:55 5.47414 -4.17945 44926 ft 479 kts 125°
2026-05-08 08:56 5.43479 -4.12544 44927 ft 479 kts 125°
2026-05-08 08:56 5.39538 -4.07136 44942 ft 480 kts 125°
2026-05-08 08:57 5.35593 -4.01725 44942 ft 481 kts 125°
2026-05-08 08:57 5.31638 -3.96303 44941 ft 482 kts 125°
2026-05-08 08:58 5.27841 -3.90763 44924 ft 482 kts 118°
2026-05-08 08:58 5.25011 -3.84682 44939 ft 481 kts 111°
2026-05-08 08:59 5.22280 -3.78544 44933 ft 483 kts 115°
2026-05-08 08:59 5.19399 -3.72457 44937 ft 483 kts 113°
2026-05-08 09:00 5.16639 -3.66315 44951 ft 483 kts 114°
2026-05-08 09:00 5.13782 -3.60208 44941 ft 484 kts 114°
2026-05-08 09:01 5.10988 -3.54069 44935 ft 484 kts 114°
2026-05-08 09:01 5.08149 -3.47947 44947 ft 484 kts 114°
2026-05-08 09:02 5.05339 -3.41817 44948 ft 484 kts 114°
2026-05-08 09:02 5.02512 -3.35695 44958 ft 484 kts 114°
2026-05-08 09:03 4.99693 -3.29568 44957 ft 484 kts 114°
2026-05-08 09:03 4.96867 -3.23444 44945 ft 484 kts 114°
2026-05-08 09:04 4.94044 -3.17317 44955 ft 484 kts 114°
2026-05-08 09:04 4.91219 -3.11193 44952 ft 484 kts 114°
2026-05-08 09:05 4.88394 -3.05069 44965 ft 484 kts 114°
2026-05-08 09:05 4.85568 -2.98944 44966 ft 484 kts 114°
2026-05-08 09:06 4.82787 -2.92800 44973 ft 484 kts 113°
2026-05-08 09:06 4.79994 -2.86658 44961 ft 484 kts 114°
2026-05-08 09:07 4.77201 -2.80511 44950 ft 485 kts 113°
2026-05-08 09:07 4.74406 -2.74363 44956 ft 484 kts 114°
2026-05-08 09:08 4.71612 -2.68219 44957 ft 484 kts 113°
2026-05-08 09:08 4.68818 -2.62076 44962 ft 484 kts 114°
2026-05-08 09:09 4.66025 -2.55936 44965 ft 484 kts 114°
2026-05-08 09:09 4.63231 -2.49797 44963 ft 484 kts 114°
2026-05-08 09:10 4.60437 -2.43660 44957 ft 484 kts 114°
2026-05-08 09:10 4.57643 -2.37522 44953 ft 484 kts 114°
2026-05-08 09:11 4.54848 -2.31387 44953 ft 484 kts 114°
2026-05-08 09:11 4.52052 -2.25249 44957 ft 484 kts 114°
2026-05-08 09:12 4.49256 -2.19113 44948 ft 484 kts 114°
2026-05-08 09:12 4.46457 -2.12972 44940 ft 484 kts 114°
2026-05-08 09:13 4.43658 -2.06834 44940 ft 484 kts 114°
2026-05-08 09:13 4.40857 -2.00690 44937 ft 485 kts 114°
2026-05-08 09:14 4.38067 -1.94535 44939 ft 485 kts 113°
2026-05-08 09:14 4.35395 -1.88327 44949 ft 485 kts 112°
2026-05-08 09:15 4.32654 -1.82145 44945 ft 486 kts 113°
2026-05-08 09:15 4.29945 -1.75935 44938 ft 487 kts 112°
2026-05-08 09:16 4.27212 -1.69727 44950 ft 487 kts 113°
2026-05-08 09:16 4.24485 -1.63511 44954 ft 488 kts 113°
2026-05-08 09:17 4.21714 -1.57304 44952 ft 488 kts 113°
2026-05-08 09:17 4.18955 -1.51089 44958 ft 488 kts 113°
2026-05-08 09:18 4.16189 -1.44872 44963 ft 489 kts 113°
2026-05-08 09:18 4.13423 -1.38654 44966 ft 489 kts 113°
2026-05-08 09:19 4.10654 -1.32432 44949 ft 489 kts 113°
2026-05-08 09:19 4.07883 -1.26205 44964 ft 489 kts 113°
2026-05-08 09:20 4.05114 -1.19985 44971 ft 489 kts 113°
2026-05-08 09:20 4.02342 -1.13760 44959 ft 490 kts 113°
2026-05-08 09:21 3.99567 -1.07531 44959 ft 490 kts 113°
2026-05-08 09:23 3.89579 -0.85856 44968 ft 490 kts 114°
2026-05-08 09:23 3.86736 -0.79657 44966 ft 490 kts 114°
2026-05-08 09:24 3.83878 -0.73459 44965 ft 490 kts 114°
2026-05-08 09:24 3.81029 -0.67263 44973 ft 490 kts 114°
2026-05-08 09:25 3.78177 -0.61072 44970 ft 490 kts 114°
2026-05-08 09:25 3.75325 -0.54879 44971 ft 489 kts 114°
2026-05-08 09:26 3.72475 -0.48693 44967 ft 489 kts 114°
2026-05-08 09:26 3.69626 -0.42509 44975 ft 489 kts 114°
2026-05-08 09:27 3.66778 -0.36329 44972 ft 489 kts 114°
2026-05-08 09:27 3.64411 -0.31194 44974 ft 489 kts 114°
2026-05-08 09:28 3.61562 -0.25015 44971 ft 488 kts 114°
2026-05-08 09:28 3.58716 -0.18843 44980 ft 488 kts 114°
2026-05-08 09:29 3.55851 -0.12631 44979 ft 488 kts 113°
2026-05-08 09:29 3.53004 -0.06460 44981 ft 488 kts 113°
2026-05-08 09:30 3.50157 -0.00290 44978 ft 488 kts 113°
2026-05-08 09:30 3.47310 0.05878 44983 ft 488 kts 114°
2026-05-08 09:31 3.44464 0.12045 44985 ft 488 kts 114°
2026-05-08 09:31 3.41616 0.18212 44980 ft 488 kts 114°
2026-05-08 09:32 3.38769 0.24377 44984 ft 488 kts 114°
2026-05-08 09:32 3.35924 0.30538 44981 ft 488 kts 114°
2026-05-08 09:33 3.33078 0.36698 44987 ft 488 kts 114°
2026-05-08 09:33 3.30232 0.42857 44981 ft 487 kts 114°
2026-05-08 09:34 3.27387 0.49013 44986 ft 487 kts 114°
2026-05-08 09:34 3.24544 0.55164 44988 ft 487 kts 114°
2026-05-08 09:35 3.21703 0.61309 44991 ft 486 kts 114°
2026-05-08 09:35 3.18862 0.67453 44983 ft 486 kts 114°
2026-05-08 09:36 3.16042 0.73551 44982 ft 486 kts 114°
2026-05-08 09:36 3.13203 0.79687 44987 ft 486 kts 114°
2026-05-08 09:37 3.10366 0.85820 44982 ft 486 kts 114°
2026-05-08 09:37 3.07530 0.91948 44982 ft 485 kts 114°
2026-05-08 09:38 3.04695 0.98074 44981 ft 485 kts 114°
2026-05-08 09:38 3.01861 1.04196 44981 ft 485 kts 113°
2026-05-08 09:39 2.99026 1.10319 44986 ft 485 kts 113°
2026-05-08 09:39 2.96191 1.16443 44987 ft 485 kts 113°
2026-05-08 09:40 2.93356 1.22563 44986 ft 485 kts 113°
2026-05-08 09:40 2.90522 1.28681 44984 ft 485 kts 113°
2026-05-08 09:41 2.87686 1.34801 44983 ft 485 kts 113°
2026-05-08 09:41 2.84850 1.40922 44982 ft 485 kts 113°
2026-05-08 09:42 2.82012 1.47045 44971 ft 485 kts 113°
2026-05-08 09:42 2.79173 1.53170 44980 ft 485 kts 113°
2026-05-08 09:43 2.76334 1.59295 44985 ft 485 kts 113°
2026-05-08 09:43 2.73492 1.65423 44977 ft 486 kts 113°
2026-05-08 09:44 2.70649 1.71553 44985 ft 486 kts 113°
2026-05-08 09:44 2.67804 1.77689 44969 ft 487 kts 113°
2026-05-08 09:45 2.64957 1.83825 44983 ft 487 kts 113°
2026-05-08 09:45 2.62087 1.90011 44985 ft 487 kts 113°
2026-05-08 09:46 2.59235 1.96157 44984 ft 487 kts 113°
2026-05-08 09:46 2.56379 2.02312 44986 ft 488 kts 113°
2026-05-08 09:47 2.53520 2.08470 44986 ft 488 kts 113°
2026-05-08 09:47 2.50659 2.14633 44984 ft 489 kts 113°
2026-05-08 09:48 2.47796 2.20799 44985 ft 489 kts 113°
2026-05-08 09:48 2.44930 2.26972 44982 ft 490 kts 114°
2026-05-08 09:49 2.42061 2.33149 44983 ft 490 kts 114°
2026-05-08 09:49 2.39189 2.39330 44983 ft 490 kts 114°
2026-05-08 09:50 2.36317 2.45514 44983 ft 491 kts 114°
2026-05-08 09:50 2.33441 2.51703 44984 ft 491 kts 114°
2026-05-08 09:51 2.30561 2.57901 44972 ft 491 kts 114°
2026-05-08 09:51 2.27681 2.64098 44977 ft 492 kts 114°
2026-05-08 09:52 2.24797 2.70303 44978 ft 492 kts 114°
2026-05-08 09:52 2.21912 2.76508 44982 ft 492 kts 114°
2026-05-08 09:53 2.19026 2.82714 44976 ft 493 kts 114°
2026-05-08 09:53 2.16137 2.88928 44979 ft 493 kts 114°
2026-05-08 09:54 2.13248 2.95140 44975 ft 493 kts 114°
2026-05-08 09:54 2.10355 3.01360 44984 ft 493 kts 114°
2026-05-08 09:55 2.07462 3.07579 44974 ft 494 kts 114°
2026-05-08 09:55 2.04566 3.13805 44973 ft 494 kts 114°
2026-05-08 09:56 2.01666 3.20038 44967 ft 494 kts 114°
2026-05-08 09:56 1.98765 3.26272 44978 ft 495 kts 114°
2026-05-08 09:57 1.94410 3.35629 44983 ft 495 kts 114°
2026-05-08 09:57 1.91506 3.41868 44985 ft 495 kts 114°
2026-05-08 09:58 1.88600 3.48111 44981 ft 495 kts 114°
2026-05-08 09:58 1.85690 3.54359 44963 ft 496 kts 114°
2026-05-08 09:59 1.82778 3.60614 44964 ft 496 kts 114°
2026-05-08 09:59 1.79865 3.66869 44969 ft 497 kts 114°
2026-05-08 10:00 1.76951 3.73125 44979 ft 496 kts 114°
2026-05-08 10:00 1.74035 3.79387 44977 ft 497 kts 114°
2026-05-08 10:01 1.71117 3.85651 44974 ft 497 kts 113°
2026-05-08 10:01 1.68200 3.91912 44978 ft 497 kts 113°
2026-05-08 10:02 1.65281 3.98177 44980 ft 497 kts 113°
2026-05-08 10:02 1.62362 4.04443 44968 ft 498 kts 113°
2026-05-08 10:03 1.59458 4.10672 44978 ft 498 kts 113°
2026-05-08 10:03 1.56537 4.16942 44976 ft 498 kts 113°
2026-05-08 10:04 1.53612 4.23217 44966 ft 498 kts 113°
2026-05-08 10:04 1.50687 4.29492 44970 ft 498 kts 113°
2026-05-08 10:05 1.47760 4.35771 44973 ft 498 kts 113°
2026-05-08 10:05 1.44832 4.42051 44976 ft 499 kts 113°
2026-05-08 10:06 1.42378 4.47313 44975 ft 499 kts 113°
2026-05-08 10:06 1.39449 4.53595 44970 ft 499 kts 113°
2026-05-08 10:07 1.36519 4.59880 44966 ft 499 kts 113°
2026-05-08 10:07 1.33588 4.66163 44969 ft 499 kts 113°
2026-05-08 10:08 1.30657 4.72447 44971 ft 499 kts 113°
2026-05-08 10:08 1.27725 4.78735 44968 ft 499 kts 113°
2026-05-08 10:09 1.24792 4.85021 44972 ft 499 kts 113°
2026-05-08 10:09 1.21862 4.91302 44979 ft 498 kts 113°
2026-05-08 10:10 1.18933 4.97581 44969 ft 498 kts 113°
2026-05-08 10:10 1.16004 5.03858 44964 ft 498 kts 113°
2026-05-08 10:11 1.13078 5.10130 44965 ft 498 kts 113°
2026-05-08 10:11 1.10153 5.16397 44973 ft 498 kts 113°
2026-05-08 10:12 1.07229 5.22663 44969 ft 497 kts 113°
2026-05-08 10:12 1.04306 5.28925 44967 ft 497 kts 113°
2026-05-08 10:13 1.01387 5.35179 44967 ft 496 kts 113°
2026-05-08 10:13 0.98469 5.41431 44968 ft 496 kts 114°
2026-05-08 10:14 0.95552 5.47681 44970 ft 496 kts 114°
2026-05-08 10:14 0.92641 5.53921 44972 ft 495 kts 113°
2026-05-08 10:15 0.89741 5.60165 44968 ft 495 kts 114°
2026-05-08 10:15 0.86839 5.66398 44973 ft 495 kts 114°
2026-05-08 10:16 0.83941 5.72630 44968 ft 494 kts 114°
2026-05-08 10:16 0.81041 5.78860 44966 ft 494 kts 114°
2026-05-08 10:17 0.78144 5.85087 44960 ft 494 kts 114°
2026-05-08 10:17 0.75247 5.91313 44958 ft 494 kts 114°
2026-05-08 10:18 0.72352 5.97534 44956 ft 494 kts 114°
2026-05-08 10:18 0.69457 6.03755 44967 ft 493 kts 114°
2026-05-08 10:19 0.66567 6.09967 44972 ft 493 kts 114°
2026-05-08 10:20 0.62229 6.19287 44969 ft 493 kts 114°
2026-05-08 10:20 0.59337 6.25500 44965 ft 493 kts 114°
2026-05-08 10:21 0.56444 6.31717 44963 ft 493 kts 114°
2026-05-08 10:21 0.53550 6.37933 44965 ft 493 kts 114°
2026-05-08 10:22 0.50659 6.44145 44967 ft 493 kts 114°
2026-05-08 10:22 0.47768 6.50356 44966 ft 493 kts 114°
2026-05-08 10:23 0.44877 6.56566 44952 ft 493 kts 114°
2026-05-08 10:23 0.41991 6.62774 44952 ft 493 kts 114°
2026-05-08 10:24 0.39199 6.69028 44915 ft 492 kts 109°
2026-05-08 10:24 0.37815 6.75684 44926 ft 490 kts 95°
2026-05-08 10:25 0.38005 6.82458 44956 ft 488 kts 84°
2026-05-08 10:25 0.38641 6.89168 44947 ft 489 kts 87°
2026-05-08 10:26 0.38696 6.96001 44956 ft 489 kts 88°
2026-05-08 10:26 0.39062 7.02732 44955 ft 489 kts 86°
2026-05-08 10:27 0.39264 7.09520 44957 ft 489 kts 88°
2026-05-08 10:27 0.39546 7.16306 44967 ft 489 kts 87°
2026-05-08 10:28 0.39796 7.23093 44971 ft 489 kts 88°
2026-05-08 10:28 0.40054 7.29879 44974 ft 489 kts 87°
2026-05-08 10:29 0.40314 7.36671 44967 ft 489 kts 88°
2026-05-08 10:29 0.40568 7.43464 44969 ft 489 kts 87°
2026-05-08 10:30 0.40830 7.50260 44972 ft 490 kts 87°
2026-05-08 10:30 0.41085 7.57063 44956 ft 490 kts 87°
2026-05-08 10:31 0.41345 7.63865 44950 ft 491 kts 87°
2026-05-08 10:31 0.41603 7.70723 44962 ft 491 kts 87°
2026-05-08 10:32 0.41862 7.77543 44961 ft 491 kts 87°
2026-05-08 10:32 0.42120 7.84362 44968 ft 492 kts 87°
2026-05-08 10:33 0.42379 7.91193 44974 ft 492 kts 87°
2026-05-08 10:33 0.42638 7.98027 44970 ft 492 kts 87°
2026-05-08 10:34 0.42897 8.04867 44969 ft 493 kts 87°
2026-05-08 10:34 0.43154 8.11664 44964 ft 493 kts 87°
2026-05-08 10:35 0.43413 8.18556 44958 ft 493 kts 87°
2026-05-08 10:35 0.43671 8.25405 44968 ft 493 kts 87°
2026-05-08 10:36 0.43929 8.32256 44977 ft 493 kts 87°
2026-05-08 10:36 0.44187 8.39107 44975 ft 494 kts 87°
2026-05-08 10:37 0.44445 8.45964 44974 ft 494 kts 87°
2026-05-08 10:37 0.44703 8.52821 44969 ft 494 kts 87°
2026-05-08 10:38 0.44961 8.59679 44972 ft 494 kts 87°
2026-05-08 10:38 0.45219 8.66537 44973 ft 494 kts 87°
2026-05-08 10:39 0.45477 8.73393 44970 ft 494 kts 87°
2026-05-08 10:39 0.45734 8.80250 44968 ft 494 kts 87°
2026-05-08 10:40 0.45992 8.87105 44968 ft 494 kts 87°
2026-05-08 10:40 0.46250 8.93961 44966 ft 494 kts 87°
2026-05-08 10:41 0.46507 9.00817 44966 ft 494 kts 87°
2026-05-08 10:41 0.46765 9.07674 44961 ft 494 kts 87°
2026-05-08 10:42 0.47022 9.14530 44967 ft 494 kts 87°
2026-05-08 10:42 0.47279 9.21388 44968 ft 494 kts 87°
2026-05-08 10:43 0.47534 9.28246 44968 ft 494 kts 87°
2026-05-08 10:43 0.47605 9.35107 44946 ft 496 kts 94°
2026-05-08 10:44 0.46008 9.41744 44961 ft 498 kts 110°
2026-05-08 10:44 0.42577 9.47795 44960 ft 501 kts 126°
2026-05-08 10:45 0.37887 9.52959 44965 ft 502 kts 133°
2026-05-08 10:45 0.33287 9.58132 44958 ft 501 kts 126°
2026-05-08 10:46 0.29109 9.63695 44946 ft 501 kts 127°
2026-05-08 10:46 0.24609 9.69020 44952 ft 501 kts 128°
2026-05-08 10:47 0.20298 9.74494 44950 ft 501 kts 127°
2026-05-08 10:47 0.16594 9.79016 44940 ft 502 kts 128°
2026-05-08 10:48 0.12208 9.84448 44937 ft 502 kts 127°
2026-05-08 10:48 0.07827 9.89873 44942 ft 502 kts 128°
2026-05-08 10:49 0.03433 9.95297 44937 ft 502 kts 127°
2026-05-08 10:49 -0.00951 10.00731 44944 ft 502 kts 127°
2026-05-08 10:50 -0.05345 10.06156 44947 ft 502 kts 127°
2026-05-08 10:50 -0.09734 10.11592 44949 ft 502 kts 127°
2026-05-08 10:51 -0.14128 10.17021 44941 ft 503 kts 127°
2026-05-08 10:51 -0.18520 10.22457 44945 ft 503 kts 127°
2026-05-08 10:52 -0.22915 10.27891 44948 ft 503 kts 127°
2026-05-08 10:52 -0.27313 10.33332 44953 ft 503 kts 127°
2026-05-08 10:53 -0.31710 10.38769 44957 ft 503 kts 127°
2026-05-08 10:53 -0.36108 10.44210 44962 ft 503 kts 127°
2026-05-08 10:54 -0.40509 10.49654 44952 ft 504 kts 127°
2026-05-08 10:54 -0.44911 10.55100 44948 ft 504 kts 127°
2026-05-08 10:55 -0.49315 10.60548 44956 ft 504 kts 127°
2026-05-08 10:55 -0.53720 10.65997 44958 ft 504 kts 127°
2026-05-08 10:56 -0.58126 10.71447 44954 ft 504 kts 127°
2026-05-08 10:56 -0.62505 10.76864 44960 ft 504 kts 127°
2026-05-08 10:57 -0.66892 10.82293 44951 ft 505 kts 127°
2026-05-08 10:57 -0.73514 10.90485 44957 ft 505 kts 127°
2026-05-08 10:58 -0.77927 10.95945 44954 ft 505 kts 127°
2026-05-08 10:58 -0.82313 11.01372 44959 ft 505 kts 127°
2026-05-08 10:59 -0.86729 11.06837 44978 ft 505 kts 127°
2026-05-08 10:59 -0.91146 11.12302 44975 ft 505 kts 127°
2026-05-08 11:00 -0.95559 11.17764 44976 ft 505 kts 127°
2026-05-08 11:00 -0.99973 11.23226 44978 ft 505 kts 127°
2026-05-08 11:01 -1.04389 11.28691 44974 ft 505 kts 127°
2026-05-08 11:01 -1.08807 11.34160 44974 ft 506 kts 127°
2026-05-08 11:02 -1.15434 11.42361 44971 ft 506 kts 127°
2026-05-08 11:03 -1.19852 11.47830 44981 ft 506 kts 127°
2026-05-08 11:03 -1.24273 11.53302 44966 ft 506 kts 127°
2026-05-08 11:04 -1.28692 11.58771 44967 ft 506 kts 127°
2026-05-08 11:04 -1.33110 11.64242 44968 ft 506 kts 127°
2026-05-08 11:05 -1.37530 11.69713 44975 ft 506 kts 127°
2026-05-08 11:05 -1.41945 11.75180 44979 ft 506 kts 127°
2026-05-08 11:06 -1.46359 11.80646 44981 ft 505 kts 127°
2026-05-08 11:06 -1.50774 11.86113 44986 ft 505 kts 127°
2026-05-08 11:07 -1.55188 11.91579 44972 ft 506 kts 127°
2026-05-08 11:07 -1.59603 11.97047 44967 ft 505 kts 127°
2026-05-08 11:08 -1.64016 12.02513 44973 ft 505 kts 127°
2026-05-08 11:08 -1.68424 12.07972 44964 ft 505 kts 127°
2026-05-08 11:09 -1.72831 12.13431 44970 ft 504 kts 127°
2026-05-08 11:09 -1.77237 12.18890 44966 ft 505 kts 127°
2026-05-08 11:10 -1.81642 12.24347 44965 ft 504 kts 127°
2026-05-08 11:10 -1.86045 12.29804 44971 ft 504 kts 127°
2026-05-08 11:11 -1.90452 12.35265 44964 ft 504 kts 127°
2026-05-08 11:11 -1.94853 12.40719 44969 ft 504 kts 127°
2026-05-08 11:12 -1.99256 12.46176 44977 ft 504 kts 127°
2026-05-08 11:12 -2.03657 12.51631 44980 ft 504 kts 127°
2026-05-08 11:13 -2.08054 12.57082 44963 ft 504 kts 127°
2026-05-08 11:13 -2.12457 12.62540 44968 ft 504 kts 127°
2026-05-08 11:14 -2.16858 12.67997 44967 ft 504 kts 127°
2026-05-08 11:14 -2.21262 12.73458 44962 ft 504 kts 127°
2026-05-08 11:15 -2.25669 12.78924 44962 ft 505 kts 127°
2026-05-08 11:15 -2.30072 12.84385 44964 ft 505 kts 127°
2026-05-08 11:16 -2.34480 12.89853 44963 ft 505 kts 127°
2026-05-08 11:16 -2.38884 12.95316 44971 ft 505 kts 127°
2026-05-08 11:17 -2.43287 13.00779 44972 ft 505 kts 127°
2026-05-08 11:17 -2.47690 13.06242 44960 ft 505 kts 127°
2026-05-08 11:18 -2.52093 13.11703 44969 ft 504 kts 127°
2026-05-08 11:18 -2.56497 13.17166 44968 ft 504 kts 127°
2026-05-08 11:19 -2.60895 13.22622 44973 ft 504 kts 127°
2026-05-08 11:19 -2.65290 13.28076 44959 ft 504 kts 127°
2026-05-08 11:20 -2.69653 13.33490 44965 ft 503 kts 127°
2026-05-08 11:20 -2.74039 13.38937 44969 ft 502 kts 127°
2026-05-08 11:21 -2.78420 13.44379 44969 ft 502 kts 127°
2026-05-08 11:21 -2.82800 13.49820 44954 ft 502 kts 127°
2026-05-08 11:22 -2.87182 13.55265 44968 ft 502 kts 127°
2026-05-08 11:22 -2.91555 13.60700 44958 ft 502 kts 127°
2026-05-08 11:23 -2.95926 13.66133 44162 ft 500 kts 127°
2026-05-08 11:23 -2.98094 13.68825 43533 ft 497 kts 127°
2026-05-08 11:23 -3.00268 13.71529 42882 ft 500 kts 127°
2026-05-08 11:23 -3.02454 13.74247 42221 ft 503 kts 127°
2026-05-08 11:24 -3.04646 13.76973 41562 ft 505 kts 127°
2026-05-08 11:24 -3.06855 13.79719 40896 ft 508 kts 127°
2026-05-08 11:24 -3.09072 13.82476 40232 ft 510 kts 127°
2026-05-08 11:24 -3.11302 13.85249 39558 ft 512 kts 127°
2026-05-08 11:25 -3.13540 13.88033 38882 ft 515 kts 127°
2026-05-08 11:25 -3.15792 13.90833 38156 ft 517 kts 127°
2026-05-08 11:25 -3.18050 13.93641 37477 ft 519 kts 127°
2026-05-08 11:25 -3.20314 13.96458 36806 ft 522 kts 127°
2026-05-08 11:26 -3.22597 13.99298 36102 ft 524 kts 127°
2026-05-08 11:26 -3.24885 14.02144 35411 ft 527 kts 127°
2026-05-08 11:26 -3.27188 14.05010 34714 ft 530 kts 128°
2026-05-08 11:26 -3.29499 14.07885 34017 ft 532 kts 127°
2026-05-08 11:27 -3.31826 14.10781 33278 ft 533 kts 128°
2026-05-08 11:27 -3.34152 14.13675 32572 ft 535 kts 128°
2026-05-08 11:27 -3.36489 14.16585 31865 ft 537 kts 128°
2026-05-08 11:27 -3.38831 14.19500 31154 ft 538 kts 128°
2026-05-08 11:28 -3.41182 14.22425 30445 ft 539 kts 128°
2026-05-08 11:28 -3.43535 14.25355 29685 ft 540 kts 128°
2026-05-08 11:28 -3.45876 14.28269 28977 ft 534 kts 128°
2026-05-08 11:28 -3.48193 14.31153 28276 ft 529 kts 128°
2026-05-08 11:29 -3.50485 14.34006 27578 ft 523 kts 128°
2026-05-08 11:29 -3.52755 14.36833 26895 ft 518 kts 128°
2026-05-08 11:29 -3.55000 14.39629 26208 ft 513 kts 128°
2026-05-08 11:29 -3.57225 14.42401 25543 ft 508 kts 128°
2026-05-08 11:30 -3.59425 14.45141 24878 ft 503 kts 128°
2026-05-08 11:30 -3.61606 14.47858 24214 ft 498 kts 128°
2026-05-08 11:30 -3.63040 14.49644 23780 ft 495 kts 128°
2026-05-08 11:30 -3.65186 14.52317 23084 ft 489 kts 128°
2026-05-08 11:31 -3.67310 14.54962 22441 ft 485 kts 128°
2026-05-08 11:31 -3.69408 14.57577 21810 ft 480 kts 128°
2026-05-08 11:31 -3.71487 14.60168 21173 ft 475 kts 128°
2026-05-08 11:31 -3.73543 14.62731 20546 ft 470 kts 128°
2026-05-08 11:32 -3.75580 14.65269 19936 ft 465 kts 128°
2026-05-08 11:32 -3.77595 14.67780 19314 ft 460 kts 128°
2026-05-08 11:32 -3.79588 14.70265 18721 ft 455 kts 128°
2026-05-08 11:32 -3.81561 14.72725 18106 ft 451 kts 128°
2026-05-08 11:33 -3.83513 14.75158 17490 ft 446 kts 128°
2026-05-08 11:33 -3.85449 14.77572 16907 ft 443 kts 128°
2026-05-08 11:33 -3.87370 14.79968 16323 ft 439 kts 128°
2026-05-08 11:33 -3.89271 14.82338 15747 ft 435 kts 128°
2026-05-08 11:34 -3.91160 14.84693 15177 ft 431 kts 128°
2026-05-08 11:34 -3.93037 14.87018 14610 ft 428 kts 129°
2026-05-08 11:34 -3.95051 14.89200 14043 ft 425 kts 134°
2026-05-08 11:34 -3.97226 14.91182 13466 ft 422 kts 139°
2026-05-08 11:35 -3.99448 14.92979 12926 ft 392 kts 141°
2026-05-08 11:35 -4.01212 14.94891 12381 ft 360 kts 123°
2026-05-08 11:35 -4.02377 14.96990 11972 ft 332 kts 116°
2026-05-08 11:35 -4.03366 14.99001 11570 ft 312 kts 116°
2026-05-08 11:36 -4.04406 15.00841 11177 ft 296 kts 122°
2026-05-08 11:36 -4.05657 15.02435 10791 ft 288 kts 131°
2026-05-08 11:36 -4.07024 15.03880 10436 ft 285 kts 132°
2026-05-08 11:36 -4.08335 15.05354 10059 ft 282 kts 129°
2026-05-08 11:37 -4.09578 15.06868 9680 ft 280 kts 128°
2026-05-08 11:37 -4.10661 15.08463 9219 ft 278 kts 111°
2026-05-08 11:37 -4.10856 15.10355 8844 ft 274 kts 85°
2026-05-08 11:37 -4.10458 15.12217 8547 ft 274 kts 71°
2026-05-08 11:38 -4.09494 15.13854 8190 ft 275 kts 50°
2026-05-08 11:38 -4.08140 15.15187 7842 ft 273 kts 48°
2026-05-08 11:38 -4.07045 15.16730 7483 ft 271 kts 59°
2026-05-08 11:38 -4.06194 15.18410 7125 ft 270 kts 67°
2026-05-08 11:39 -4.05611 15.20190 6746 ft 269 kts 77°
2026-05-08 11:39 -4.05289 15.22027 6397 ft 267 kts 83°
2026-05-08 11:39 -4.05163 15.23880 6019 ft 266 kts 87°
2026-05-08 11:39 -4.05064 15.25729 5666 ft 266 kts 87°
2026-05-08 11:40 -4.05050 15.27580 5313 ft 265 kts 92°
2026-05-08 11:40 -4.05151 15.29421 4963 ft 264 kts 94°
2026-05-08 11:40 -4.05364 15.31246 4601 ft 264 kts 101°
2026-05-08 11:40 -4.05832 15.33010 4254 ft 260 kts 108°
2026-05-08 11:41 -4.06377 15.34693 3952 ft 247 kts 109°
2026-05-08 11:41 -4.07112 15.36121 3932 ft 216 kts 126°
2026-05-08 11:41 -4.08113 15.37167 3957 ft 206 kts 140°
2026-05-08 11:41 -4.09273 15.38012 3991 ft 206 kts 149°
2026-05-08 11:42 -4.10539 15.38685 4003 ft 206 kts 155°
2026-05-08 11:42 -4.11854 15.39232 3953 ft 206 kts 168°
2026-05-08 11:42 -4.13217 15.38976 3913 ft 197 kts 207°
2026-05-08 11:42 -4.14218 15.38124 3955 ft 189 kts 227°
2026-05-08 11:43 -4.15051 15.37101 3690 ft 189 kts 232°
2026-05-08 11:43 -4.15842 15.36117 3456 ft 176 kts 231°
2026-05-08 11:43 -4.16635 15.35170 3229 ft 175 kts 230°
2026-05-08 11:43 -4.17383 15.34283 3009 ft 159 kts 230°
2026-05-08 11:44 -4.18073 15.33463 2802 ft 150 kts 230°
2026-05-08 11:44 -4.18723 15.32690 2612 ft 141 kts 230°
2026-05-08 11:44 -4.19341 15.31955 2437 ft 135 kts 230°
2026-05-08 11:44 -4.19944 15.31238 2269 ft 134 kts 230°
2026-05-08 11:45 -4.20545 15.30523 2100 ft 134 kts 230°
2026-05-08 11:45 -4.21149 15.29813 1931 ft 134 kts 229°
2026-05-08 11:45 -4.21778 15.29131 1775 ft 132 kts 229°
2026-05-08 11:45 -4.22362 15.28414 1576 ft 134 kts 232°
2026-05-08 11:46 -4.22945 15.27688 1383 ft 132 kts 232°
2026-05-08 11:46 -4.23526 15.26985 1200 ft 131 kts 231°
2026-05-08 11:46 -4.24096 15.26291 1057 ft 125 kts 230°
2026-05-08 11:46 -4.24599 15.25686 1032 ft 100 kts 230°
2026-05-08 11:47 -4.24957 15.25260 1033 ft 61 kts 230°
2026-05-08 11:47 -4.25095 15.25184 1033 ft 15 kts 139°
2026-05-08 11:47 -4.25169 15.25265 1035 ft 14 kts 106°
2026-05-08 11:47 -4.25116 15.25364 1035 ft 21 kts 50°
2026-05-08 11:48 -4.25005 15.25496 1035 ft 26 kts 51°
2026-05-08 11:48 -4.24892 15.25634 1035 ft 26 kts 50°
2026-05-08 11:48 -4.24779 15.25770 1035 ft 25 kts 50°
2026-05-08 11:48 -4.24683 15.25891 1035 ft 17 kts 76°
2026-05-08 11:49 -4.24740 15.25969 1035 ft 16 kts 140°
2026-05-08 11:49 -4.24812 15.26028 1035 ft 10 kts 154°
2026-05-08 11:49 -4.24870 15.26064 1035 ft 9 kts 117°
2026-05-08 11:49 -4.24888 15.26133 1035 ft 11 kts 100°
2026-05-08 11:50 -4.24900 15.26181 1035 ft 6 kts 161°
2026-05-08 11:50 -4.24927 15.26180 1035 ft 0 kts 205°
2026-05-08 11:50 -4.24943 15.26173 1035 ft 9 kts 207°
2026-05-08 11:50 -4.24949 15.26110 1035 ft 9 kts 325°
2026-05-08 11:51 -4.24891 15.26130 1035 ft 12 kts 55°
2026-05-08 11:51 -4.24891 15.26196 1035 ft 9 kts 130°
2026-05-08 11:51 -4.24924 15.26192 1035 ft 0 kts 233°